Location: Ballingbuur
(53.0000°N, 5.7667°E)
Time: 06:16:40
(UTC+00:00)

SJ 16-02 - Pass Details

Date: 29 November 2020
Orbit: 606 x 616 km, 75.0° (Epoch: 23 January)

Event Time Altitude Azimuth Distance (km) Brightness Sun altitude
Exits shadow 06:23:16 - 273° (W) 2,023 3.4 -8.8°
Reaches altitude 10° 06:23:25 10° 275° (W) 1,982 3.4 -8.8°
Maximum altitude 06:26:19 17° 316° (NW) 1,584 2.9 -8.4°
Drops below altitude 10° 06:29:13 10° 357° (N) 1,992 3.7 -8.0°
Sets 06:32:13 0° 18° (NNE) 2,902 4.7 -7.6°
